ZS1OSS-13 Weather Reports


time (UTC)temp
C
wind
direction
speed
KPH
gust
KPH
rain 1hr
cm
rain 24hr
cm
rain mn
cm
humidity
%
barometer
mb
20260509185744 15 242 12.9 16.1 0.00 0.00 0.00 81 1003.5
20260509185240 15 242 8.0 11.3 0.00 0.00 0.00 80 1003.7
20260509184738 15 242 9.7 12.9 0.00 0.00 0.00 79 1003.8
20260509184235 15 242 9.7 11.3 0.00 0.00 0.00 78 1003.9
20260509183731 15 242 8.0 9.7 0.00 0.00 0.00 78 1004.1
20260509183226 15 242 9.7 11.3 0.00 0.00 0.00 79 1004.2
20260509182722 15 242 4.8 4.8 0.00 0.00 0.00 78 1004.2
20260509182220 15 242 6.4 9.7 0.00 0.00 0.00 77 1004.2
20260509181717 15 242 6.4 8.0 0.00 0.00 0.00 77 1004.4
20260509181215 15 242 9.7 12.9 0.00 0.00 0.00 76 1004.3
20260509180712 15 242 6.4 9.7 0.00 0.00 0.00 74 1004.3
20260509180208 15 242 8.0 14.5 0.00 0.00 0.00 74 1004.5
20260509175704 15 242 4.8 8.0 0.00 0.00 0.00 74 1004.5
20260509175201 15 242 8.0 9.7 0.00 0.00 0.00 75 1004.6
20260509174656 15 242 6.4 8.0 0.00 0.00 0.00 75 1004.6
20260509174151 15 242 4.8 4.8 0.00 0.00 0.00 75 1004.6
20260509173647 15 242 8.0 9.7 0.00 0.00 0.00 75 1004.6
20260509173143 15 241 4.8 4.8 0.00 0.00 0.00 76 1004.6
20260509172640 15 241 4.8 8.0 0.00 0.00 0.00 76 1004.6
20260509172136 15 242 6.4 8.0 0.00 0.00 0.00 77 1004.6
20260509171632 15 242 4.8 9.7 0.00 0.00 0.00 77 1004.9
20260509171128 15 242 6.4 8.0 0.00 0.00 0.00 77 1004.8
20260509170625 15 241 6.4 9.7 0.00 0.00 0.00 77 1004.8
20260509170121 15 241 4.8 8.0 0.00 0.00 0.00 78 1004.9
20260509165619 15 241 8.0 9.7 0.00 0.00 0.00 78 1005.0
20260509165115 15 242 6.4 11.3 0.00 0.00 0.00 79 1004.8
20260509164611 15 242 9.7 14.5 0.00 0.00 0.00 80 1004.7
20260509164107 15 242 12.9 16.1 0.00 0.00 0.00 81 1005.0
20260509163605 15 241 8.0 9.7 0.00 0.00 0.00 81 1004.9
20260509163101 15 242 19.3 24.1 0.00 0.00 0.00 82 1005.0
20260509162558 15 242 8.0 9.7 0.00 0.00 0.00 82 1005.2
20260509162054 15 242 9.7 12.9 0.00 0.00 0.00 84 1005.0
20260509161550 15 241 8.0 9.7 0.00 0.00 0.00 84 1005.1
20260509161045 15 242 4.8 12.9 0.00 0.00 0.00 84 1005.2
20260509160541 15 242 8.0 11.3 0.00 0.00 0.00 83 1005.1
20260509160037 15 241 12.9 20.9 0.00 0.00 0.00 83 1005.3
20260509155533 15 241 6.4 9.7 0.00 0.00 0.00 83 1005.3
20260509155029 15 242 8.0 9.7 0.00 0.00 0.00 83 1005.2
20260509154526 15 241 6.4 9.7 0.00 0.00 0.00 84 1005.3
20260509154024 15 241 8.0 12.9 0.00 0.00 0.00 84 1005.2
20260509153520 15 241 9.7 14.5 0.00 0.00 0.00 84 1005.2
20260509153017 15 241 11.3 12.9 0.00 0.00 0.00 84 1005.3
20260509152513 15 242 12.9 20.9 0.00 0.00 0.00 83 1005.3
20260509152009 15 241 6.4 8.0 0.00 0.00 0.00 83 1005.3
20260509151506 15 241 4.8 9.7 0.00 0.00 0.00 83 1005.2
20260509151005 15 241 6.4 9.7 0.00 0.00 0.00 82 1005.5
20260509150501 16 241 4.8 8.0 0.00 0.00 0.00 82 1005.3
20260509150000 16 241 9.7 12.9 0.00 0.00 0.00 81 1005.5
20260509145455 16 241 4.8 8.0 0.00 0.00 0.00 81 1005.3
20260509144950 16 241 8.0 9.7 0.00 0.00 0.00 81 1005.5
20260509144448 16 241 4.8 8.0 0.00 0.00 0.00 81 1005.5
20260509143945 16 241 12.9 16.1 0.00 0.00 0.00 80 1005.5
20260509143441 16 241 9.7 17.7 0.00 0.00 0.00 80 1005.4
20260509142938 16 241 8.0 12.9 0.00 0.00 0.00 79 1005.3
20260509142434 16 241 6.4 8.0 0.00 0.00 0.00 78 1005.5
20260509141930 16 241 4.8 9.7 0.00 0.00 0.00 77 1005.5
20260509141427 16 241 6.4 8.0 0.00 0.00 0.00 77 1005.3
20260509140924 16 241 12.9 14.5 0.00 0.00 0.00 76 1005.3
20260509140420 16 242 8.0 11.3 0.00 0.00 0.00 75 1005.5
20260509135919 17 241 9.7 11.3 0.00 0.00 0.00 75 1005.6
20260509135416 17 242 1.6 3.2 0.00 0.00 0.00 74 1005.4
20260509134913 17 242 9.7 12.9 0.00 0.00 0.00 73 1005.4
20260509134411 17 242 8.0 12.9 0.00 0.00 0.00 71 1005.4
20260509133907 17 242 8.0 11.3 0.00 0.00 0.00 71 1005.5
20260509133404 17 242 11.3 12.9 0.00 0.00 0.00 70 1005.6
20260509132902 17 242 9.7 16.1 0.00 0.00 0.00 70 1005.6
20260509132400 17 242 14.5 17.7 0.00 0.00 0.00 68 1005.8
20260509131857 18 242 14.5 17.7 0.00 0.00 0.00 67 1005.3
20260509131354 18 242 8.0 11.3 0.00 0.00 0.00 67 1005.6
20260509130851 18 242 6.4 8.0 0.00 0.00 0.00 68 1005.6
20260509130346 18 242 6.4 9.7 0.00 0.00 0.00 68 1005.9
20260509125843 18 242 9.7 12.9 0.00 0.00 0.00 69 1005.7
20260509125339 18 242 4.8 9.7 0.00 0.00 0.00 68 1005.7
20260509124836 18 242 4.8 4.8 0.00 0.00 0.00 70 1006.0
20260509124333 18 242 6.4 11.3 0.00 0.00 0.00 71 1006.2
20260509123831 18 242 4.8 11.3 0.00 0.00 0.00 71 1006.3
20260509123328 18 242 9.7 12.9 0.00 0.00 0.00 71 1006.4
20260509122823 18 242 11.3 16.1 0.00 0.00 0.00 70 1006.5
20260509122320 18 242 8.0 9.7 0.00 0.00 0.00 70 1006.6
20260509121817 18 242 4.8 9.7 0.00 0.00 0.00 67 1006.8
20260509121314 18 242 14.5 17.7 0.00 0.00 0.00 62 1007.0
20260509120813 18 242 9.7 16.1 0.00 0.00 0.00 62 1006.9
20260509120310 18 242 11.3 12.9 0.00 0.00 0.00 59 1007.1
20260509115808 18 242 4.8 4.8 0.00 0.00 0.00 68 1007.2
20260509115307 17 242 6.4 11.3 0.00 0.00 0.00 69 1007.4
20260509114803 18 242 9.7 12.9 0.00 0.00 0.00 69 1007.3
20260509114302 18 242 11.3 16.1 0.00 0.00 0.00 67 1007.4
20260509113800 19 242 8.0 11.3 0.00 0.00 0.00 64 1007.6
20260509113256 20 242 6.4 9.7 0.00 0.00 0.00 60 1007.4
20260509112753 20 242 8.0 12.9 0.00 0.00 0.00 59 1007.6
20260509112251 20 242 1.6 1.6 0.00 0.00 0.00 60 1007.9
20260509111747 20 242 3.2 3.2 0.00 0.00 0.00 61 1008.2
20260509111244 18 242 8.0 11.3 0.00 0.00 0.00 62 1008.0
20260509110742 18 242 11.3 12.9 0.00 0.00 0.00 62 1008.2
20260509110238 19 242 8.0 12.9 0.00 0.00 0.00 62 1008.2
20260509105736 19 242 4.8 4.8 0.00 0.00 0.00 63 1008.3
20260509105234 19 242 11.3 14.5 0.00 0.00 0.00 65 1008.5
20260509104730 19 242 4.8 8.0 0.00 0.00 0.00 65 1008.5
20260509104227 19 242 9.7 12.9 0.00 0.00 0.00 62 1008.3
20260509103726 18 242 3.2 8.0 0.00 0.00 0.00 66 1008.5
20260509103222 18 242 3.2 4.8 0.00 0.00 0.00 67 1008.5
20260509102721 18 242 6.4 8.0 0.00 0.00 0.00 67 1008.8
20260509102217 19 242 17.7 22.5 0.00 0.00 0.00 66 1008.5
20260509101714 18 242 0.0 1.6 0.00 0.00 0.00 68 1008.9
20260509101210 18 242 1.6 1.6 0.00 0.00 0.00 69 1009.0
20260509100708 18 242 8.0 9.7 0.00 0.00 0.00 70 1008.9
20260509100205 18 242 4.8 8.0 0.00 0.00 0.00 70 1008.8
20260509095702 18 242 9.7 16.1 0.00 0.00 0.00 69 1009.0
20260509095159 18 242 6.4 9.7 0.00 0.00 0.00 71 1009.4
20260509094655 18 242 4.8 9.7 0.00 0.00 0.00 70 1009.1
20260509094152 17 242 4.8 11.3 0.00 0.00 0.00 72 1009.2
20260509093650 17 242 8.0 12.9 0.00 0.00 0.00 73 1009.2
20260509093147 18 242 1.6 3.2 0.00 0.00 0.00 73 1009.3
20260509092645 17 241 4.8 4.8 0.00 0.00 0.00 73 1009.6
20260509092144 17 241 8.0 11.3 0.00 0.00 0.00 74 1009.7
20260509091641 17 241 4.8 8.0 0.00 0.00 0.00 76 1009.8
20260509091137 17 99 3.2 4.8 0.00 0.00 0.00 75 1009.9
20260509090635 17 101 4.8 8.0 0.00 0.00 0.00 76 1010.1
20260509090132 17 110 4.8 4.8 0.00 0.00 0.00 77 1010.2
20260509085629 17 110 8.0 9.7 0.00 0.00 0.00 78 1010.0
20260509085125 17 111 0.0 3.2 0.00 0.00 0.00 80 1010.0
20260509084623 17 112 8.0 9.7 0.00 0.00 0.00 80 1010.3
20260509084120 16 112 1.6 4.8 0.00 0.00 0.00 81 1010.2
20260509083617 16 113 9.7 14.5 0.00 0.00 0.00 81 1010.4
20260509083113 16 115 4.8 9.7 0.00 0.00 0.00 82 1010.4
20260509082611 16 139 4.8 8.0 0.00 0.00 0.00 82 1010.6
20260509082107 16 140 4.8 8.0 0.00 0.00 0.00 82 1010.7
20260509081605 16 143 4.8 8.0 0.00 0.00 0.00 82 1010.8
20260509081101 16 143 4.8 4.8 0.00 0.00 0.00 83 1010.7
20260509080600 15 144 8.0 11.3 0.00 0.00 0.00 83 1010.7
20260509080058 15 145 8.0 8.0 0.00 0.00 0.00 85 1010.8
20260509075555 15 145 4.8 8.0 0.00 0.00 0.00 85 1011.0
20260509075053 15 147 4.8 9.7 0.00 0.00 0.00 85 1011.0
20260509074549 15 147 6.4 8.0 0.00 0.00 0.00 85 1010.8
20260509074046 14 156 4.8 8.0 0.00 0.00 0.00 87 1011.1
20260509073542 14 168 6.4 8.0 0.00 0.00 0.00 88 1011.1
20260509073039 13 162 4.8 4.8 0.00 0.00 0.00 89 1011.2
20260509072535 13 163 4.8 4.8 0.00 0.00 0.00 90 1011.0
20260509072032 13 167 4.8 4.8 0.00 0.00 0.00 90 1011.3
20260509071529 13 167 4.8 4.8 0.00 0.00 0.00 90 1011.3
20260509071027 12 167 4.8 4.8 0.00 0.00 0.00 91 1011.1
20260509070524 12 168 4.8 8.0 0.00 0.00 0.00 91 1011.2
20260509070020 12 168 6.4 8.0 0.00 0.00 0.00 92 1011.1
20260509065515 12 171 1.6 3.2 0.00 0.00 0.00 93 1011.1
20260509065012 11 170 3.2 3.2 0.00 0.00 0.00 94 1011.1
20260509064510 11 169 4.8 8.0 0.00 0.00 0.00 95 1011.3
20260509064008 11 169 4.8 4.8 0.00 0.00 0.00 95 1011.1
20260509063503 10 170 3.2 3.2 0.00 0.00 0.00 96 1011.0
20260509063000 10 173 3.2 3.2 0.00 0.00 0.00 96 1010.9
20260509062457 10 171 4.8 4.8 0.00 0.00 0.00 96 1011.1
20260509061955 10 172 1.6 1.6 0.00 0.00 0.00 96 1011.1
20260509061452 9 172 3.2 3.2 0.00 0.00 0.00 96 1011.1
20260509060949 9 173 3.2 3.2 0.00 0.00 0.00 96 1011.2
20260509060446 9 172 0.0 0.0 0.00 0.00 0.00 96 1011.1
20260509055942 8 173 0.0 0.0 0.00 0.00 0.00 96 1011.0
20260509055437 8 173 0.0 0.0 0.00 0.00 0.00 96 1010.9
20260509054934 8 173 0.0 0.0 0.00 0.00 0.00 96 1011.1
20260509054431 8 173 0.0 0.0 0.00 0.00 0.00 96 1011.4
20260509053929 8 173 1.6 1.6 0.00 0.00 0.00 96 1011.1
20260509053426 8 172 0.0 0.0 0.00 0.00 0.00 96 1011.2
20260509052924 8 172 1.6 1.6 0.00 0.00 0.00 96 1011.3
20260509052421 8 172 0.0 0.0 0.00 0.00 0.00 96 1011.3
20260509051919 8 172 0.0 0.0 0.00 0.00 0.00 96 1011.4
20260509051417 8 172 0.0 0.0 0.00 0.00 0.00 96 1011.2
20260509050913 8 172 0.0 0.0 0.00 0.00 0.00 96 1011.6
20260509050410 8 172 0.0 0.0 0.00 0.00 0.00 96 1011.2
20260509045907 8 172 0.0 0.0 0.00 0.00 0.00 96 1011.4
20260509045404 8 172 0.0 0.0 0.00 0.00 0.00 96 1011.3
20260509044901 8 172 0.0 0.0 0.00 0.00 0.00 96 1011.3
20260509044358 8 172 0.0 0.0 0.00 0.00 0.00 96 1011.4
20260509043855 8 172 0.0 0.0 0.00 0.00 0.00 96 1011.3
20260509043351 8 172 0.0 0.0 0.00 0.00 0.00 96 1011.7
20260509042847 8 172 0.0 0.0 0.00 0.00 0.00 96 1011.3
20260509042343 8 172 0.0 0.0 0.00 0.00 0.00 96 1011.4
20260509041840 8 172 0.0 0.0 0.00 0.00 0.00 96 1011.6
20260509041337 8 172 0.0 0.0 0.00 0.00 0.00 96 1011.6
20260509040836 8 172 0.0 0.0 0.00 0.00 0.00 96 1011.4
20260509040333 8 172 0.0 0.0 0.00 0.00 0.00 96 1011.3
20260509035829 8 172 0.0 0.0 0.00 0.00 0.00 96 1011.5
20260509035327 9 172 0.0 0.0 0.00 0.00 0.00 96 1011.4
20260509034823 9 172 0.0 0.0 0.00 0.00 0.00 96 1011.6
20260509034321 8 172 0.0 0.0 0.00 0.00 0.00 96 1011.6
20260509033817 9 172 0.0 0.0 0.00 0.00 0.00 96 1011.6
20260509033315 9 172 0.0 0.0 0.00 0.00 0.00 96 1011.7
20260509032811 9 173 0.0 0.0 0.00 0.00 0.00 96 1011.8
20260509032308 9 172 0.0 0.0 0.00 0.00 0.00 96 1011.7
20260509031806 9 172 0.0 0.0 0.00 0.00 0.00 96 1011.7
20260509031303 10 172 0.0 0.0 0.00 0.00 0.00 96 1011.7
20260509030801 9 172 1.6 1.6 0.00 0.00 0.00 96 1011.9
20260509030259 9 173 0.0 0.0 0.00 0.00 0.00 96 1011.7
20260509025755 10 172 1.6 1.6 0.00 0.00 0.00 96 1011.8
20260509025250 10 172 0.0 0.0 0.00 0.00 0.00 96 1011.8
20260509024746 10 172 1.6 1.6 0.00 0.00 0.00 96 1011.9
20260509024243 10 173 0.0 0.0 0.00 0.00 0.00 96 1012.0
20260509023740 10 172 0.0 1.6 0.00 0.00 0.00 96 1012.2
20260509023237 10 172 0.0 0.0 0.00 0.00 0.00 95 1011.9
20260509022733 10 172 1.6 1.6 0.00 0.00 0.00 96 1012.4
20260509022231 10 172 0.0 0.0 0.00 0.00 0.00 95 1012.1
20260509021728 10 172 1.6 1.6 0.00 0.00 0.00 96 1012.4
20260509021225 10 172 0.0 0.0 0.00 0.00 0.00 96 1012.4
20260509020723 10 172 1.6 1.6 0.00 0.00 0.00 96 1012.2
20260509020220 10 172 1.6 3.2 0.00 0.00 0.00 96 1012.3
20260509015718 10 172 0.0 0.0 0.00 0.00 0.00 96 1012.3
20260509015216 10 172 0.0 0.0 0.00 0.00 0.00 96 1012.6
20260509014712 10 173 0.0 0.0 0.00 0.00 0.00 96 1012.4
20260509014209 10 173 0.0 0.0 0.00 0.00 0.00 96 1012.7
20260509013706 10 173 0.0 0.0 0.00 0.00 0.00 96 1012.8
20260509013201 10 173 0.0 0.0 0.00 0.00 0.00 96 1012.9
20260509012658 10 173 0.0 0.0 0.00 0.00 0.00 96 1012.7
20260509012155 10 173 0.0 0.0 0.00 0.00 0.00 96 1012.9
20260509011653 10 173 0.0 0.0 0.00 0.00 0.00 96 1012.7
20260509011150 10 173 0.0 0.0 0.00 0.00 0.00 96 1013.1
20260509010647 10 173 0.0 0.0 0.00 0.00 0.00 95 1013.2
20260509010143 10 173 0.0 0.0 0.00 0.00 0.00 95 1013.3
20260509005641 10 173 0.0 0.0 0.00 0.00 0.00 95 1013.3
20260509005137 10 173 0.0 0.0 0.00 0.00 0.00 95 1013.3
20260509004633 10 173 0.0 0.0 0.00 0.00 0.00 95 1013.4
20260509004130 10 173 0.0 0.0 0.00 0.00 0.00 95 1013.3
20260509003629 10 173 0.0 0.0 0.00 0.00 0.00 95 1013.4
20260509003126 10 173 0.0 0.0 0.00 0.00 0.00 95 1013.3
20260509002623 10 173 0.0 0.0 0.00 0.00 0.00 95 1013.3
20260509002120 10 173 0.0 0.0 0.00 0.00 0.00 95 1013.4
20260509001618 10 173 0.0 0.0 0.00 0.00 0.00 95 1013.5
20260509001113 10 173 0.0 0.0 0.00 0.00 0.00 95 1013.5
20260509000612 10 173 0.0 0.0 0.00 0.00 0.00 95 1013.4
20260509000108 10 173 0.0 0.0 0.00 0.00 0.00 95 1013.5
20260508235606 10 173 0.0 0.0 0.00 0.00 0.00 95 1013.7
20260508235102 10 173 0.0 0.0 0.00 0.00 0.00 95 1013.7
20260508234600 11 173 0.0 0.0 0.00 0.00 0.00 95 1013.6
20260508234056 11 173 0.0 0.0 0.00 0.00 0.00 94 1013.5
20260508233555 11 173 0.0 0.0 0.00 0.00 0.00 94 1013.7
20260508233052 11 173 0.0 0.0 0.00 0.00 0.00 94 1013.6
20260508232549 11 173 0.0 0.0 0.00 0.00 0.00 94 1013.6
20260508232046 11 173 0.0 0.0 0.00 0.00 0.00 94 1013.6
20260508231544 11 173 0.0 0.0 0.00 0.00 0.00 94 1013.8
20260508231041 11 173 0.0 0.0 0.00 0.00 0.00 94 1013.7
20260508230537 11 173 0.0 0.0 0.00 0.00 0.00 94 1013.4
20260508230034 11 173 0.0 0.0 0.00 0.00 0.00 94 1013.6
20260508225531 11 173 0.0 0.0 0.00 0.00 0.00 94 1013.6
20260508225028 11 173 0.0 0.0 0.00 0.00 0.00 94 1013.5
20260508224526 11 173 0.0 0.0 0.00 0.00 0.00 93 1013.9
20260508224023 11 173 0.0 0.0 0.00 0.00 0.00 94 1013.8
20260508223521 11 173 0.0 0.0 0.00 0.00 0.00 93 1014.0
20260508223018 11 173 0.0 0.0 0.00 0.00 0.00 93 1014.1
20260508222515 11 173 0.0 0.0 0.00 0.00 0.00 93 1014.0
20260508222012 11 173 0.0 0.0 0.00 0.00 0.00 93 1014.0
20260508221508 11 173 0.0 0.0 0.00 0.00 0.00 93 1014.4
20260508221004 11 173 0.0 0.0 0.00 0.00 0.00 93 1014.2
20260508220501 11 173 0.0 0.0 0.00 0.00 0.00 92 1014.0
20260508215956 12 173 0.0 0.0 0.00 0.00 0.00 92 1014.2
20260508215454 12 173 0.0 0.0 0.00 0.00 0.00 92 1014.2
20260508214950 12 173 0.0 0.0 0.00 0.00 0.00 92 1014.3
20260508214448 12 173 0.0 0.0 0.00 0.00 0.00 92 1014.2
20260508213944 12 173 0.0 0.0 0.00 0.00 0.00 92 1014.5
20260508213442 12 173 0.0 0.0 0.00 0.00 0.00 91 1014.6
20260508212937 12 173 0.0 0.0 0.00 0.00 0.00 91 1014.6
20260508212434 12 173 0.0 0.0 0.00 0.00 0.00 91 1014.7
20260508211930 12 173 0.0 0.0 0.00 0.00 0.00 91 1014.7
20260508211426 12 173 0.0 0.0 0.00 0.00 0.00 91 1014.8
20260508210923 12 173 0.0 0.0 0.00 0.00 0.00 90 1014.8
20260508210420 12 173 0.0 0.0 0.00 0.00 0.00 90 1014.9
20260508205916 12 173 0.0 0.0 0.00 0.00 0.00 90 1014.9
20260508205413 12 173 0.0 0.0 0.00 0.00 0.00 90 1014.8
20260508204909 13 173 0.0 0.0 0.00 0.00 0.00 89 1014.7
20260508204407 13 173 0.0 0.0 0.00 0.00 0.00 89 1014.7
20260508203902 13 173 0.0 0.0 0.00 0.00 0.00 89 1015.0
20260508203358 13 173 0.0 0.0 0.00 0.00 0.00 89 1014.8
20260508202854 13 173 0.0 0.0 0.00 0.00 0.00 88 1015.0
20260508202352 13 173 0.0 0.0 0.00 0.00 0.00 88 1015.0
20260508201849 13 173 0.0 0.0 0.00 0.00 0.00 88 1015.2
20260508201346 13 173 0.0 0.0 0.00 0.00 0.00 88 1014.9
20260508200842 13 173 0.0 0.0 0.00 0.00 0.00 87 1015.0
20260508200339 13 173 0.0 0.0 0.00 0.00 0.00 87 1015.2
20260508195834 13 173 0.0 0.0 0.00 0.00 0.00 87 1014.8
20260508195331 14 173 0.0 0.0 0.00 0.00 0.00 87 1015.0
20260508194828 14 173 0.0 0.0 0.00 0.00 0.00 87 1015.1
20260508194325 14 173 0.0 0.0 0.00 0.00 0.00 87 1015.2
20260508193822 14 173 0.0 0.0 0.00 0.00 0.00 87 1015.3
20260508193319 14 173 0.0 0.0 0.00 0.00 0.00 87 1015.1
20260508192815 14 173 0.0 0.0 0.00 0.00 0.00 87 1015.2
20260508192312 14 173 0.0 1.6 0.00 0.00 0.00 87 1015.3
20260508191809 14 173 0.0 0.0 0.00 0.00 0.00 87 1015.3
20260508191306 14 173 0.0 0.0 0.00 0.00 0.00 87 1015.1
20260508190804 14 173 0.0 0.0 0.00 0.00 0.00 87 1015.1
20260508190259 14 173 0.0 0.0 0.00 0.00 0.00 87 1015.2